Location: Del Amo
(33.8464°N, 118.2104°W)
Time: 21:52:00
(UTC+00:00)

Courier 1B Rocket - Pass Details

Date: 20 September 2024
Orbit: 920 x 1201 km, 28.3° (Epoch: 13 October)

Event Time Altitude Azimuth Distance (km) Brightness Sun altitude
Rises 04:28:09 0° 258° (WSW) 3,871 8.8 -32.0°
Reaches altitude 10° 04:33:22 10° 227° (SW) 2,986 7.7 -33.0°
Maximum altitude 04:35:27 11° 210° (SSW) 2,913 7.5 -33.4°
Enters shadow 04:36:09 11° 204° (SSW) 2,932 7.4 -33.5°
